Regional Weather Roundup
Issued by NWS

Home | Current Version | Previous Version | Text Only | Print | Product List | Glossary On
Versions: 1 2 3 4 5 6 7 8 9 10 11 12 13 14 15 16 17 18 19 20 21 22 23 24 25 26 27 28 29 30 31 32 33 34 35 36 37 38 39 40 41 42 43 44 45 46 47 48 49 50
045
ASUS44 KJAN 261510
RWRMS

MISSISSIPPI HOURLY WEATHER ROUNDUP
NATIONAL WEATHER SERVICE JACKSON MS
1000 AM CDT TUE AUG 26 2014

NOTE: "FAIR: INDICATES FEW OR NO CLOUDS BELOW 12,000 FEET WITH NO
SIGNIFICANT WEATHER AND/OR OBSTRUCTIONS TO VISIBILITY.

MSZ001>002-007>008-010>013-018>021-025>028-034>036-261600-
NORTHWEST MISSISSIPPI

CITY           SKY/WX    TMP DP  RH WIND       PRES   REMARKS
CLARKSDALE     FAIR      82  72  69 CALM      30.11S
CLEVELAND      CLOUDY    82  73  72 SE8       30.10R
GREENWOOD      CLOUDY    82  65  56 E5        30.10R
GREENVILLE     MOSUNNY   83  72  69 SE5       30.09R
GRENADA        CLOUDY    79  64  61 SE6       30.12R
OLIVE BRANCH   PTSUNNY   81  72  74 S8        30.13R
OXFORD         FAIR      81  63  54 CALM      30.15R
TUNICA         SUNNY     82  70  65 S7        30.12R
$$

MSZ003>006-009-014>017-022>024-029>033-037>039-261600-
NORTHEAST MISSISSIPPI

CITY           SKY/WX    TMP DP  RH WIND       PRES   REMARKS
BELMONT        CLOUDY    77  63  62 SE5       30.15R
COLUMBUS AFB   SUNNY     81  62  51 SE8       30.13R
CORINTH        FAIR      81  66  61 SE7       30.14R
GOLDN TRIANGLE MOSUNNY   81  61  50 SE10      30.13R
STARKVILLE     FAIR      81  61  50 SE5       30.12R
TUPELO         CLOUDY    81  61  50 S7        30.13R
$$

MSZ040-058-261600-
CENTRAL MISSISSIPPI

CITY           SKY/WX    TMP DP  RH WIND       PRES   REMARKS
JACKSON INTL   NOT AVBL
JACKSON HAWKNS SUNNY     82  62  50 E9        30.08S
MERIDIAN KEY   SUNNY     81  62  52 E8        30.09R
MERIDIAN NAS   MOSUNNY   81  62  52 E7        30.10R
RAYMOND        FAIR      82  77  83 E6        30.08R HX  91
VICKSBURG      PTSUNNY   82  68  62 E6        30.06R
$$

MSZ059>079-261600-
SOUTH MISSISSIPPI

CITY           SKY/WX    TMP DP  RH WIND       PRES   REMARKS
BROOKHAVEN     FAIR      81  68  65 NE5       30.08S
COLUMBIA       FAIR      82  68  61 MISG      30.04R
HATTIESBURG    SUNNY     82  64  54 E7        30.06R
MCCOMB         SUNNY     80  66  62 E6        30.05R
NATCHEZ        MOSUNNY   81  72  74 E6        30.06S
PINE BELT      SUNNY     82  64  54 NE9       30.08R
$$

MSZ080>082-261600-
COASTAL MISSISSIPPI

CITY           SKY/WX    TMP DP  RH WIND       PRES   REMARKS
BAY ST LOUIS   SUNNY    N/A N/A N/A E8        30.01R
BILOXI         SUNNY     86  69  56 E8        30.01R
PASCAGOULA     SUNNY     84  68  58 E12       30.01R
GULFPORT       SUNNY     84  69  60 NE12      30.01R
$$



USA.gov is the U.S. government's official web portal to all federal, state and local government web resources and services.